Regional Weather Roundup
Issued by NWS

Home | Current Version | Previous Version | Text Only | Print | Product List | Glossary Off
Versions: 1 2 3 4 5 6 7 8 9 10 11 12 13 14 15 16 17 18 19 20 21 22 23 24 25 26 27 28 29 30 31 32 33 34 35 36 37 38 39 40 41 42 43 44 45 46 47 48 49 50

741
ASUS43 KIND 220109
RWRIN

WEATHER ROUNDUP FOR INDIANA
NATIONAL WEATHER SERVICE INDIANAPOLIS IN
800 PM EST TUE NOV 21 2017

NOTE: "FAIR" INDICATES FEW OR NO CLOUDS BELOW 12,000 FEET WITH NO
SIGNIFICANT WEATHER AND/OR OBSTRUCTIONS TO VISIBILITY.

* - STATION DOES NOT REPORT WEATHER SUCH AS PRECIPITATION OR FOG.

+ - STATION NOT QUALITY CONTROLLED BY THE NATIONAL WEATHER SERVICE.
    USE DATA WITH CAUTION...ESPECIALLY DEWPOINT AND RELATIVE
    HUMIDITY OBSERVATIONS.

INZ001>003-010>013-019-020-220200-
NORTHWEST INDIANA

CITY           SKY/WX    TMP DP  RH WIND       PRES   REMARKS
GARY /AIRPORT/ PTCLDY    34  16  47 NW16G29   30.12R WCI  23
KNOX *+        CLOUDY    34  27  75 NW15      30.08R WCI  24
LA PORTE +     CLOUDY    33  23  65 NW12      30.09R WCI  25
MICHIGAN CITY+ CLOUDY    34  21  60 NW9G16    30.10R WCI  26
MONTICELLO +   CLOUDY    32  24  73 NW14      30.09R WCI  22
RENSSELAER +   CLEAR     32  23  69 W5        30.11R WCI  27
VALPARAISO     CLOUDY    35  22  58 NW13G18   30.10R WCI  26

$$

LMZ046-743>745-220200-
SOUTHERN LAKE MICHIGAN

STATION/POSITION TIME  TEMP    WIND        PRES    WAVE
                       AIR SEA DIR/SP/G            HT
                 (UTC) (F)     (DEG/KT/KT) (MB)    (FT)
BURNS HARBOR     0040   36     320/ 16/ 23 1019.6R
MICHIGAN CITY    0040   35     310/ 19/ 23   N/A

$$

INZ004-005-014>016-021>024-220200-
NORTH CENTRAL INDIANA

CITY           SKY/WX    TMP DP  RH WIND       PRES   REMARKS
ELKHART          N/A     36  27  69 NW9       30.04R WCI  29
GOSHEN         CLOUDY    35  26  69 NW13      30.04R WCI  26
LOGANSPORT +   MOCLDY    32  27  80 NW9G16    30.09R WCI  24
PERU/GRISSOM   CLOUDY    34  31  90 NW14      30.06R WCI  25
ROCHESTER +    CLOUDY    36  30  80 NW15G24   30.07R WCI  26
SOUTH BEND     CLOUDY    34  26  72 NW17      30.07R WCI  23
WARSAW +       CLOUDY    34  28  80 NW14      30.04R WCI  24

$$

INZ006>009-017-018-025>027-220200-
NORTHEAST INDIANA

CITY           SKY/WX    TMP DP  RH WIND       PRES   REMARKS
AUBURN +       CLOUDY    36  32  87 W13       30.01R WCI  27
FORT WAYNE     CLOUDY    37  33  85 W17       30.02R WCI  27
HUNTINGTON +   CLOUDY    35  31  87 W8G16     30.03R WCI  28
KENDALLVILLE + CLOUDY    35  31  85 NW7       30.02R WCI  29

$$

INZ028-029-035-036-043>045-051>053-220200-
WEST CENTRAL INDIANA

CITY           SKY/WX    TMP DP  RH WIND       PRES   REMARKS
CRAWFORDSVL +  CLOUDY    32  30  91 NW13G21   30.06S WCI  22
GREENCASTLE +  CLOUDY    34  32  93 NW5       30.10R WCI  30
LAFAYETTE      PTCLDY    32  26  78 NW9       30.11R WCI  24
TERRE HAUTE    CLOUDY    37  30  75 NW13G20   30.12R WCI  29

$$

INZ030>032-037>040-046>048-054>057-064-065-220200-
CENTRAL INDIANA

CITY           SKY/WX    TMP DP  RH WIND       PRES   REMARKS
CP ATTERBURY + CLOUDY    41  34  75 NW13      30.06R
COLUMBUS       CLOUDY    45  28  53 NW17G25   30.04R
FRANKFORT +    CLOUDY    37  32  85 NW16      30.10R WCI  27
INDIANAPOLIS   LGT SNOW  34  31  88 NW22      30.08R FOG     WCI  22
-EAGLE CREEK   LGT SNOW  34  30  85 NW12      30.07R FOG     WCI  25
KOKOMO +       CLOUDY    35  31  85 W16       30.07R WCI  25
MARION +       CLOUDY    35  32  90 NW20      30.05R WCI  24
MT COMFORT *+  CLOUDY    36  36 100 NW18G24   30.06R WCI  25
SHELBYVILLE    LGT RAIN  42  33  70 NW15      30.03R
ZIONSVILLE +   CLOUDY    33  32  96 NW12      30.08R WCI  24

$$

INZ033-034-041-042-049-050-058-059-220200-
EAST CENTRAL INDIANA

CITY           SKY/WX    TMP DP  RH WIND       PRES   REMARKS
MUNCIE         CLOUDY    36  32  85 W16G23    30.04R WCI  26
RICHMOND +     CLOUDY    43  32  65 NW14G24   30.01R

$$

INZ060-061-067>069-081>083-085>088-220200-
SOUTHWEST INDIANA

CITY           SKY/WX    TMP DP  RH WIND       PRES   REMARKS
EVANSVILLE     CLOUDY    51  37  58 NW10G18   30.07R
HUNTINGBURG +  CLOUDY    50  36  58 NW9       30.04R
WASHINGTON +   CLOUDY    45  28  52 N17G26    30.08R

$$

INZ062-063-066-070>080-084-089>092-220200-
SOUTH CENTRAL AND SOUTHEAST INDIANA

CITY           SKY/WX    TMP DP  RH WIND       PRES   REMARKS
BEDFORD +      CLOUDY    50  34  53 NW8       30.03
BLOOMINGTON    LGT RAIN  44  30  57 NW9       30.06R
MADISON *+     CLOUDY    50  32  50 W3        30.03R
NORTH VERNON + PTCLDY    46  34  61 W6        30.01R
SEYMOUR +      CLOUDY    50  34  53 NW6       30.02R

$$





USA.gov is the U.S. government's official web portal to all federal, state and local government web resources and services.